When you browse on this site, cookies collect data to enhance your experience and personalize the content and advertising you see.
Visit our Privacy Policy to learn more. By continuing to use the site, you agree to this use of cookies and data.
  • En España
  • Lista de países
  • Para 7 días
  • Temperatura del agua
  • El tiempo en el mapa
  • Informadores
  • user-avatar
    Iniciar sesión

    Tiempo cada hora Campobasso

    Hoy, 21 Agosto, Miércoles

    Tiempo Temperatura Precipitaciones Viento Presión Humedad
    00:00 +22°C° 0 mm 1 mps 702 mmHg 48%
    01:00 +22°C° 0 mm 1 mps 702 mmHg 48%
    02:00 +21°C° 0 mm 1 mps 702 mmHg 49%
    03:00 +21°C° 0 mm 1 mps 702 mmHg 50%
    04:00 +21°C° 0 mm 1 mps 701 mmHg 50%
    05:00 +22°C° 0 mm 1 mps 702 mmHg 46%
    06:00 +24°C° 0 mm 1 mps 702 mmHg 42%
    07:00 +25°C° 0 mm 1 mps 703 mmHg 39%
    08:00 +28°C° 0 mm 1 mps 703 mmHg 34%
    09:00 +30°C° 0 mm 1 mps 704 mmHg 30%
    10:00 +32°C° 0 mm 1 mps 704 mmHg 25%
    11:00 +34°C° 0 mm 2 mps 704 mmHg 24%
    12:00 +35°C° 0 mm 2 mps 704 mmHg 22%
    13:00 +36°C° 0 mm 3 mps 704 mmHg 21%
    14:00 +35°C° 0 mm 3 mps 704 mmHg 23%
    15:00 +35°C° 0 mm 3 mps 703 mmHg 25%
    16:00 +34°C° 0 mm 4 mps 703 mmHg 27%
    17:00 +30°C° 0 mm 3 mps 703 mmHg 33%
    18:00 +28°C° 0 mm 2 mps 702 mmHg 39%
    19:00 +25°C° 0 mm 1 mps 702 mmHg 46%
    20:00 +24°C° 0 mm 1 mps 702 mmHg 48%
    21:00 +23°C° 0 mm 1 mps 702 mmHg 51%
    22:00 +22°C° 0 mm 1 mps 702 mmHg 54%
    23:00 +22°C° 0 mm 1 mps 702 mmHg 54%

    Mañana, 22 Agosto, Jueves

    Tiempo Temperatura Precipitaciones Viento Presión Humedad
    00:00 +21°C° 0 mm 1 mps 702 mmHg 54%
    01:00 +21°C° 0 mm 1 mps 702 mmHg 54%
    02:00 +21°C° 0 mm 1 mps 702 mmHg 53%
    03:00 +21°C° 0 mm 1 mps 702 mmHg 53%
    04:00 +21°C° 0 mm 1 mps 701 mmHg 52%
    05:00 +22°C° 0 mm 1 mps 702 mmHg 49%
    06:00 +24°C° 0 mm 1 mps 702 mmHg 45%
    07:00 +25°C° 0 mm 1 mps 703 mmHg 41%
    08:00 +27°C° 0 mm 2 mps 703 mmHg 37%
    09:00 +29°C° 0 mm 2 mps 704 mmHg 33%
    10:00 +31°C° 0 mm 2 mps 704 mmHg 29%
    11:00 +33°C° 0 mm 3 mps 704 mmHg 28%
    12:00 +34°C° 0 mm 3 mps 704 mmHg 27%
    13:00 +35°C° 0 mm 4 mps 704 mmHg 26%
    14:00 +34°C° 0 mm 3 mps 704 mmHg 30%
    15:00 +33°C° 0 mm 3 mps 703 mmHg 34%
    16:00 +31°C° 0 mm 3 mps 703 mmHg 38%
    17:00 +29°C° 0.2 mm 3 mps 703 mmHg 47%
    18:00 +27°C° 0.2 mm 2 mps 702 mmHg 56%
    19:00 +24°C° 0.2 mm 1 mps 702 mmHg 65%
    20:00 +24°C° 0.1 mm 1 mps 702 mmHg 70%
    21:00 +23°C° 0.1 mm 1 mps 703 mmHg 75%
    22:00 +22°C° 0.1 mm 1 mps 703 mmHg 80%
    23:00 +21°C° 0.1 mm 1 mps 703 mmHg 81%

    Pasado mañana, 23 Agosto, Viernes

    Tiempo Temperatura Precipitaciones Viento Presión Humedad
    00:00 +21°C° 0.1 mm 1 mps 702 mmHg 82%
    01:00 +20°C° 0.1 mm 1 mps 702 mmHg 83%
    02:00 +20°C° 0.1 mm 1 mps 702 mmHg 84%
    03:00 +20°C° 0.1 mm 1 mps 702 mmHg 85%
    04:00 +19°C° 0.1 mm 1 mps 702 mmHg 86%
    05:00 +21°C° 0.2 mm 1 mps 702 mmHg 79%
    06:00 +22°C° 0.2 mm 1 mps 702 mmHg 73%
    07:00 +23°C° 0.2 mm 1 mps 703 mmHg 67%
    08:00 +26°C° 0 mm 1 mps 703 mmHg 55%
    09:00 +28°C° 0 mm 1 mps 704 mmHg 44%
    10:00 +31°C° 0 mm 2 mps 704 mmHg 33%
    11:00 +31°C° 0 mm 2 mps 704 mmHg 32%
    12:00 +33°C° 0 mm 3 mps 704 mmHg 30%
    13:00 +34°C° 0 mm 3 mps 704 mmHg 29%
    14:00 +30°C° 1.7 mm 3 mps 703 mmHg 43%
    15:00 +27°C° 1.7 mm 3 mps 703 mmHg 56%
    16:00 +24°C° 1.7 mm 3 mps 702 mmHg 70%
    17:00 +22°C° 2.9 mm 3 mps 702 mmHg 75%
    18:00 +20°C° 2.9 mm 2 mps 702 mmHg 80%
    19:00 +19°C° 2.9 mm 2 mps 702 mmHg 85%
    20:00 +18°C° 0 mm 2 mps 702 mmHg 83%
    21:00 +18°C° 0 mm 2 mps 702 mmHg 81%
    22:00 +19°C° 0 mm 1 mps 702 mmHg 79%
    23:00 +19°C° 0 mm 1 mps 702 mmHg 77%

    24 Agosto, Sábado

    Tiempo Temperatura Precipitaciones Viento Presión Humedad
    00:00 +19°C° 0 mm 1 mps 702 mmHg 75%
    01:00 +19°C° 0 mm 1 mps 702 mmHg 74%
    02:00 +19°C° 0 mm 1 mps 701 mmHg 73%
    03:00 +19°C° 0 mm 1 mps 701 mmHg 73%
    04:00 +19°C° 0 mm 1 mps 701 mmHg 72%
    05:00 +20°C° 0 mm 1 mps 701 mmHg 70%
    06:00 +21°C° 0 mm 1 mps 702 mmHg 67%
    07:00 +22°C° 0 mm 1 mps 702 mmHg 64%
    08:00 +25°C° 0 mm 1 mps 703 mmHg 56%
    09:00 +27°C° 0 mm 1 mps 703 mmHg 47%
    10:00 +30°C° 0 mm 1 mps 704 mmHg 38%
    11:00 +30°C° 0 mm 1 mps 704 mmHg 36%
    12:00 +31°C° 0 mm 2 mps 703 mmHg 34%
    13:00 +31°C° 0 mm 3 mps 703 mmHg 31%
    14:00 +29°C° 1.4 mm 2 mps 703 mmHg 44%
    15:00 +26°C° 1.4 mm 2 mps 702 mmHg 57%
    16:00 +23°C° 1.4 mm 2 mps 702 mmHg 70%
    17:00 +22°C° 1.1 mm 1 mps 702 mmHg 74%
    18:00 +21°C° 1.1 mm 1 mps 702 mmHg 78%
    19:00 +20°C° 1.1 mm 1 mps 702 mmHg 82%
    20:00 +20°C° 0 mm 1 mps 701 mmHg 80%
    21:00 +20°C° 0 mm 1 mps 701 mmHg 77%
    22:00 +20°C° 0 mm 1 mps 701 mmHg 74%
    23:00 +20°C° 0 mm 1 mps 701 mmHg 72%

    25 Agosto, Domingo

    Tiempo Temperatura Precipitaciones Viento Presión Humedad
    00:00 +20°C° 0 mm 1 mps 701 mmHg 70%
    01:00 +19°C° 0 mm 1 mps 701 mmHg 68%
    02:00 +19°C° 0 mm 1 mps 701 mmHg 68%
    03:00 +19°C° 0 mm 1 mps 700 mmHg 68%
    04:00 +19°C° 0 mm 1 mps 700 mmHg 67%
    05:00 +20°C° 0 mm 1 mps 701 mmHg 64%
    06:00 +21°C° 0 mm 1 mps 701 mmHg 62%
    07:00 +22°C° 0 mm 1 mps 701 mmHg 59%
    08:00 +24°C° 0 mm 1 mps 702 mmHg 52%
    09:00 +26°C° 0 mm 1 mps 702 mmHg 45%
    10:00 +29°C° 0 mm 1 mps 703 mmHg 38%
    11:00 +29°C° 0 mm 2 mps 703 mmHg 36%
    12:00 +30°C° 0 mm 2 mps 703 mmHg 34%
    13:00 +31°C° 0 mm 2 mps 703 mmHg 32%
    14:00 +29°C° 0.4 mm 2 mps 702 mmHg 39%
    15:00 +28°C° 0.4 mm 2 mps 702 mmHg 45%
    16:00 +26°C° 0.4 mm 2 mps 701 mmHg 52%
    17:00 +25°C° 0.2 mm 2 mps 701 mmHg 57%
    18:00 +23°C° 0.2 mm 1 mps 701 mmHg 63%
    19:00 +22°C° 0.2 mm 1 mps 701 mmHg 68%
    20:00 +22°C° 0 mm 1 mps 701 mmHg 68%
    21:00 +21°C° 0 mm 1 mps 701 mmHg 68%
    22:00 +21°C° 0 mm 1 mps 701 mmHg 68%
    23:00 +21°C° 0 mm 1 mps 701 mmHg 67%

    26 Agosto, Lunes

    Tiempo Temperatura Precipitaciones Viento Presión Humedad
    00:00 +20°C° 0 mm 1 mps 701 mmHg 67%
    01:00 +20°C° 0 mm 1 mps 701 mmHg 67%
    02:00 +20°C° 0 mm 1 mps 701 mmHg 66%
    03:00 +20°C° 0 mm 1 mps 701 mmHg 66%
    04:00 +20°C° 0 mm 1 mps 700 mmHg 66%
    05:00 +21°C° 0 mm 1 mps 701 mmHg 63%
    06:00 +22°C° 0 mm 1 mps 701 mmHg 60%
    07:00 +23°C° 0 mm 1 mps 702 mmHg 56%
    08:00 +25°C° 0 mm 1 mps 702 mmHg 51%
    09:00 +27°C° 0 mm 1 mps 703 mmHg 45%
    10:00 +29°C° 0 mm 2 mps 703 mmHg 39%
    11:00 +29°C° 0 mm 2 mps 703 mmHg 37%
    12:00 +30°C° 0 mm 2 mps 703 mmHg 35%
    13:00 +31°C° 0 mm 3 mps 703 mmHg 33%
    14:00 +30°C° 0.1 mm 3 mps 703 mmHg 38%
    15:00 +28°C° 0.1 mm 2 mps 703 mmHg 43%
    16:00 +27°C° 0.1 mm 2 mps 702 mmHg 48%
    17:00 +26°C° 0.4 mm 2 mps 702 mmHg 55%
    18:00 +24°C° 0.4 mm 1 mps 702 mmHg 62%
    19:00 +22°C° 0.4 mm 1 mps 702 mmHg 69%
    20:00 +22°C° 0 mm 1 mps 702 mmHg 69%
    21:00 +21°C° 0 mm 1 mps 702 mmHg 69%
    22:00 +21°C° 0 mm 1 mps 702 mmHg 70%
    23:00 +21°C° 0 mm 1 mps 702 mmHg 69%
    Mostrar más